EW9774 Weather Reports


Display with metric or nautical units.
time (UTC)temp
F
wind
direction
speed
MPH
gust
MPH
rain 1hr
in
rain 24hr
in
rain mn
in
humidity
%
barometer
mb
20260904023032 56 181 1.0 7.0 0.00 0.03 0.01 81 1011.7
20260904021605 56 334 0.0 4.0 0.00 0.09 0.01 80 1011.6
20260904014602 57 258 3.0 9.0 0.00 0.20 0.01 79 1011.6
20260904013031 57 303 1.0 7.0 0.00 0.21 0.01 78 1011.5
20260904011528 58 353 1.0 5.0 0.00 0.21 0.01 76 1011.5
20260904004532 60 13 3.0 9.0 0.00 0.22 0.01 74 1011.4
20260904003030 60 13 2.0 7.0 0.00 0.24 0.01 74 1011.3
20260904000107 60 182 1.0 9.0 0.00 0.27 0.01 78 1011.5
20260903234606 58 193 1.0 5.0 0.00 0.28 0.01 80 1011.6
20260903233030 58 220 3.0 10.0 0.00 0.28 0.01 77 1011.6
20260903231532 60 191 3.0 11.0 0.00 0.28 0.01 75 1011.5
20260903230032 61 270 0.0 5.0 0.00 0.30 0.01 73 1011.6
20260903224530 61 180 2.0 9.0 0.00 0.30 0.01 70 1011.5
20260903223106 62 182 1.0 10.0 0.01 0.30 0.01 69 1011.5
20260903214531 66 162 6.0 13.0 0.01 0.33 0.00 60 1011.2
20260903211532 66 354 0.0 6.0 0.00 0.34 0.00 61 1011.5
20260903210031 66 357 1.0 4.0 0.00 0.34 0.00 62 1011.5
20260903204530 64 296 1.0 5.0 0.00 0.35 0.00 66 1011.6
20260903203031 63 346 0.0 3.0 0.00 0.36 0.00 66 1011.7
20260903201531 63 267 2.0 5.0 0.00 0.37 0.00 71 1011.9
20260903200104 62 44 2.0 6.0 0.00 0.38 0.00 73 1012.1
20260903194532 61 45 2.0 5.0 0.00 0.38 0.00 74 1012.2
20260903193030 61 52 1.0 4.0 0.00 0.38 0.00 77 1012.5
20260903191531 60 7 2.0 5.0 0.00 0.40 0.00 81 1012.6
20260903190032 59 37 1.0 6.0 0.00 0.40 0.00 83 1012.9
20260903184528 58 90 2.0 5.0 0.00 0.40 0.00 86 1013.0
20260903181533 58 83 2.0 6.0 0.00 0.40 0.00 90 1013.0
20260903180032 57 67 3.0 7.0 0.00 0.40 0.00 94 1013.1
20260903173147 55 32 2.0 7.0 0.00 0.40 0.00 98 1013.2
20260903171531 54 185 0.0 3.0 0.00 0.40 0.00 98 1013.2
20260903170031 53 10 0.0 2.0 0.00 0.40 0.00 98 1013.2
20260903164529 53 180 0.0 1.0 0.00 0.40 0.00 98 1013.4
20260903163039 52 196 0.0 2.0 0.00 0.40 0.00 98 1013.2
20260903161606 51 180 0.0 3.0 0.00 0.40 0.00 98 1013.2
20260903154531 51 158 1.0 4.0 0.00 0.40 0.00 98 1013.2
20260903153030 50 142 1.0 3.0 0.00 0.40 0.00 98 1013.3
20260903151606 50 110 1.0 4.0 0.00 0.40 0.00 98 1013.3
20260903150031 49 194 2.0 5.0 0.00 0.40 0.00 98 1013.2
20260903144530 49 163 0.0 3.0 0.00 0.40 0.00 98 1013.0
20260903143106 48 135 1.0 5.0 0.00 0.40 0.00 98 1013.0
20260903141529 48 186 1.0 5.0 0.00 0.40 0.00 98 1012.8
20260903140032 47 183 2.0 5.0 0.00 0.40 0.00 98 1012.7
20260903134530 47 185 2.0 4.0 0.00 0.40 0.00 98 1012.6
20260903133032 48 153 0.0 4.0 0.00 0.40 0.00 98 1012.4
20260903124529 47 183 2.0 4.0 0.00 0.40 0.00 98 1012.3
20260903123039 47 190 0.0 3.0 0.00 0.40 0.00 97 1012.4
20260903121529 48 180 0.0 3.0 0.00 0.40 0.00 97 1012.4
20260903120029 48 180 0.0 2.0 0.00 0.40 0.00 98 1012.4
20260903114531 49 264 0.0 2.0 0.00 0.40 0.00 98 1012.4
20260903113030 49 184 0.0 4.0 0.00 0.40 0.00 98 1012.4
20260903111529 48 192 2.0 5.0 0.00 0.40 0.00 97 1012.3
20260903110031 49 186 1.0 4.0 0.00 0.40 0.00 97 1012.2
20260903104531 49 181 1.0 4.0 0.00 0.40 0.00 97 1012.2
20260903103029 50 72 0.0 4.0 0.00 0.40 0.00 97 1012.0
20260903101605 51 66 1.0 4.0 0.00 0.40 0.00 97 1011.9
20260903100108 52 191 0.0 3.0 0.00 0.40 0.00 97 1011.8
20260903094532 51 202 0.0 1.0 0.00 0.40 0.00 97 1011.9
20260903093030 51 182 0.0 3.0 0.00 0.40 0.00 97 1011.9
20260903091605 51 180 1.0 4.0 0.00 0.40 0.00 97 1011.9
20260903090029 51 180 0.0 2.0 0.00 0.40 0.00 97 1011.8
20260903084605 52 182 1.0 5.0 0.00 0.40 0.00 97 1011.8
20260903083031 52 140 1.0 4.0 0.00 0.40 0.00 97 1011.8
20260903080030 51 184 4.0 7.0 0.00 0.40 0.00 97 1011.7
20260903074530 51 183 3.0 6.0 0.00 0.40 0.00 97 1011.5
20260903073030 51 198 1.0 4.0 0.00 0.40 0.00 97 1011.4
20260903071529 52 171 1.0 4.0 0.00 0.40 0.00 97 1011.3
20260903070029 52 233 1.0 5.0 0.00 0.40 0.00 97 1011.4
20260903064534 53 185 2.0 6.0 0.00 0.40 0.40 97 1011.4
20260903063029 53 38 2.0 5.0 0.00 0.40 0.40 97 1011.5
20260903060043 53 186 2.0 4.0 0.00 0.40 0.40 96 1011.4
20260903054531 53 180 2.0 7.0 0.00 0.40 0.40 96 1011.4
20260903051532 54 168 1.0 4.0 0.00 0.40 0.40 96 1011.2
20260903044531 54 184 1.0 4.0 0.00 0.40 0.40 96 1010.9
20260903043029 54 180 1.0 3.0 0.01 0.40 0.40 96 1010.8
20260903041531 55 182 2.0 4.0 0.01 0.40 0.40 95 1010.5
20260903034531 57 180 0.0 4.0 0.01 0.40 0.39 95 1010.1
20260903033107 57 180 2.0 4.0 0.01 0.39 0.39 95 1010.1
20260903030032 58 136 0.0 0.0 0.15 0.39 0.39 95 1009.9
20260903024530 58 133 0.0 3.0 0.18 0.39 0.38 95 1009.9